User: anonymous   Login
Location: Bun Machan
(52.1403°N, 7.3744°W)
Time: 19:38:18
(UTC+00:00)
Language:

Helios 1A - Orbit

View from above orbital plane
View from above orbital plane
View from above satellite
View from above satellite

Ground track
Ground track

The orbit data is extracted from the following two-line orbital elements,

1 23605U 95033A   20250.96727205 0.00000150  00000-0  15036-4 0    01
2 23605  98.1581 357.4028 0008073 172.4964 187.5035 14.91398904    07
Epoch (UTC): 06 September 2020 23:12:52
Eccentricity: 0.0008073
inclination: 98.1581°
perigee height: 588 km
apogee height: 599 km
right ascension of ascending node: 357.4028°
argument of perigee: 172.4964°
revolutions per day: 14.91398904
mean anomaly at epoch: 187.5035°
orbit number at epoch: 0

The dashed part of the orbit path shows where the satellite is in the earth's shadow,  

DLR